CYBC

Baie Comeau Airport

Baie-Comeau, Quebec, Canada
Issued Wind Visibility Ceiling Temperature Dew Point Humidity Barometer
Sep-20
00:00 UTC
130°
2 KTS
9 miles Overcast
2,500' AGL
14° C
57° F
13° C
55° F
94% 30.05" Hg
1017.7 hPa
MVFR
Sep-19
23:16 UTC
Varies @2 KTS 9 miles Broken
2,500' AGL
14° C
57° F
13° C
55° F
94% 30.05" Hg
1017.8 hPa
MVFR
Sep-19
23:00 UTC
110°
3 KTS
9 miles Broken
2,500' AGL
14° C
57° F
13° C
55° F
94% 30.05" Hg
1017.8 hPa
MVFR
Sep-19
22:56 UTC
090°
3 KTS
9 miles Broken
4,200' AGL
14° C
57° F
13° C
55° F
94% 30.05" Hg
1017.7 hPa
VFR
Sep-19
22:00 UTC
100°
2 KTS
9 miles Overcast
2,500' AGL
14° C
57° F
13° C
55° F
94% 30.05" Hg
1017.9 hPa
MVFR
Sep-19
21:46 UTC
080°
2 KTS
9 miles Overcast
2,500' AGL
14° C
57° F
13° C
55° F
94% 30.05" Hg
1017.7 hPa
MVFR
Sep-19
21:00 UTC
100°
4 KTS
9 miles Overcast
2,300' AGL
14° C
57° F
13° C
55° F
94% 30.05" Hg
1017.9 hPa
MVFR
Sep-19
20:00 UTC
Varies @2 KTS 9 miles Overcast
2,100' AGL
14° C
57° F
13° C
55° F
94% 30.07" Hg
1018.4 hPa
MVFR
Sep-19
19:00 UTC
060°
3 KTS
9 miles Overcast
1,700' AGL
14° C
57° F
13° C
55° F
94% 30.07" Hg
1018.5 hPa
MVFR
Sep-19
18:28 UTC
080°
4 KTS
6 miles Overcast
1,500' AGL
13° C
55° F
13° C
55° F
100% 30.07" Hg
1018.6 hPa
MVFR
Sep-19
18:20 UTC
070°
5 KTS
4 miles Overcast
1,500' AGL
13° C
55° F
13° C
55° F
100% 30.08" Hg
1018.7 hPa
MVFR
Sep-19
18:09 UTC
080°
4 KTS
3 miles Overcast
1,300' AGL
13° C
55° F
13° C
55° F
100% 30.08" Hg
1018.9 hPa
MVFR
Sep-19
17:48 UTC
080°
5 KTS
5 miles Overcast
1,300' AGL
13° C
55° F
13° C
55° F
100% 30.09" Hg
1019.1 hPa
MVFR
Sep-19
17:18 UTC
080°
5 KTS
6 miles Overcast
1,300' AGL
13° C
55° F
13° C
55° F
100% 30.1" Hg
1019.4 hPa
MVFR
Sep-19
17:00 UTC
070°
5 KTS
3 miles Overcast
1,300' AGL
13° C
55° F
13° C
55° F
100% 30.1" Hg
1019.6 hPa
MVFR
Sep-19
16:08 UTC
060°
5 KTS
5 miles Overcast
1,300' AGL
13° C
55° F
13° C
55° F
100% 30.12" Hg
1020.1 hPa
MVFR
Sep-19
15:55 UTC
060°
4 KTS
8 miles Overcast
1,500' AGL
13° C
55° F
12° C
54° F
94% 30.12" Hg
1020.2 hPa
MVFR
Sep-19
15:16 UTC
060°
4 KTS
9 miles Broken
500' AGL
13° C
55° F
12° C
54° F
94% 30.13" Hg
1020.3 hPa
IFR
Sep-19
15:00 UTC
060°
4 KTS
9 miles Overcast
1,300' AGL
13° C
55° F
12° C
54° F
94% 30.13" Hg
1020.4 hPa
MVFR
Sep-19
14:58 UTC
060°
4 KTS
9 miles Overcast
1,300' AGL
13° C
55° F
12° C
54° F
94% 30.13" Hg
1020.4 hPa
MVFR
Sep-19
14:00 UTC
090°
6 KTS
9 miles Overcast
500' AGL
13° C
55° F
12° C
54° F
94% 30.13" Hg
1020.3 hPa
IFR
Sep-19
13:00 UTC
080°
6 KTS
9 miles Broken
300' AGL
12° C
54° F
12° C
54° F
100% 30.13" Hg
1020.6 hPa
LIFR
Sep-19
12:00 UTC
100°
7 KTS
9 miles Overcast
300' AGL
12° C
54° F
12° C
54° F
100% 30.13" Hg
1020.6 hPa
LIFR
Sep-19
11:11 UTC
090°
7 KTS
6 miles Broken
300' AGL
12° C
54° F
12° C
54° F
100% 30.13" Hg
1020.4 hPa
LIFR
Sep-19
11:07 UTC
100°
8 KTS
6 miles Broken
300' AGL
12° C
54° F
12° C
54° F
100% 30.13" Hg
1020.3 hPa
LIFR
Sep-19
10:41 UTC
080°
8 KTS
3 miles Overcast
300' AGL
12° C
54° F
12° C
54° F
100% 30.13" Hg
1020.5 hPa
LIFR
Sep-19
10:00 UTC
070°
7 KTS
2 miles Overcast
300' AGL
12° C
54° F
12° C
54° F
100% 30.13" Hg
1020.3 hPa
LIFR
Sep-19
09:41 UTC
080°
8 KTS
2 miles Overcast
300' AGL
12° C
54° F
12° C
54° F
100% 30.12" Hg
1020.2 hPa
LIFR
Sep-19
09:21 UTC
060°
6 KTS
1 3/4 miles Overcast
300' AGL
12° C
54° F
12° C
54° F
100% 30.13" Hg
1020.5 hPa
LIFR
Sep-19
09:15 UTC
080°
6 KTS
2 miles Overcast
300' AGL
12° C
54° F
12° C
54° F
100% 30.13" Hg
1020.5 hPa
LIFR
Sep-19
08:53 UTC
080°
7 KTS
1 3/4 miles Overcast
300' AGL
12° C
54° F
12° C
54° F
100% 30.13" Hg
1020.5 hPa
LIFR
Sep-19
08:27 UTC
080°
8 KTS
2 miles Overcast
300' AGL
12° C
54° F
12° C
54° F
100% 30.13" Hg
1020.6 hPa
LIFR
Sep-19
08:08 UTC
050°
6 KTS
1 3/4 miles Overcast
300' AGL
12° C
54° F
12° C
54° F
100% 30.14" Hg
1020.7 hPa
LIFR
Sep-19
07:51 UTC
060°
6 KTS
1 3/4 miles Overcast
500' AGL
12° C
54° F
12° C
54° F
100% 30.14" Hg
1020.8 hPa
IFR
Sep-19
07:34 UTC
060°
7 KTS
2 1/2 miles Broken
500' AGL
12° C
54° F
11° C
52° F
94% 30.14" Hg
1020.7 hPa
IFR
Sep-19
07:22 UTC
060°
7 KTS
2 1/2 miles Overcast
800' AGL
12° C
54° F
11° C
52° F
94% 30.14" Hg
1020.7 hPa
IFR
Sep-19
07:00 UTC
080°
9 KTS
4 miles Overcast
1,000' AGL
12° C
54° F
11° C
52° F
94% 30.13" Hg
1020.6 hPa
MVFR
Sep-19
06:13 UTC
080°
9 KTS
3 miles Overcast
1,200' AGL
12° C
54° F
11° C
52° F
94% 30.14" Hg
1020.9 hPa
MVFR
Sep-19
06:03 UTC
080°
7 KTS
5 miles Overcast
1,400' AGL
12° C
54° F
11° C
52° F
94% 30.14" Hg
1020.9 hPa
MVFR
Sep-19
05:00 UTC
090°
9 KTS
9 miles Overcast
1,200' AGL
12° C
54° F
11° C
52° F
94% 30.15" Hg
1021.3 hPa
MVFR
Sep-19
04:00 UTC
080°
9 KTS
9 miles Overcast
1,400' AGL
12° C
54° F
11° C
52° F
94% 30.16" Hg
1021.6 hPa
MVFR
Sep-19
03:05 UTC
080°
9 KTS
9 miles Overcast
1,400' AGL
12° C
54° F
12° C
54° F
100% 30.17" Hg
1021.8 hPa
MVFR
Sep-19
02:51 UTC
070°
8 KTS
6 miles Overcast
800' AGL
12° C
54° F
12° C
54° F
100% 30.18" Hg
1022 hPa
IFR
Sep-19
02:14 UTC
080°
10 KTS
4 miles Overcast
800' AGL
12° C
54° F
12° C
54° F
100% 30.18" Hg
1022.3 hPa
IFR
Sep-19
02:04 UTC
080°
9 KTS
3 miles Overcast
600' AGL
12° C
54° F
12° C
54° F
100% 30.18" Hg
1022.3 hPa
IFR
Sep-19
01:56 UTC
070°
9 KTS
3 miles Overcast
600' AGL
12° C
54° F
12° C
54° F
100% 30.18" Hg
1022.3 hPa
IFR
Sep-19
01:33 UTC
080°
9 KTS
3 miles Overcast
400' AGL
12° C
54° F
11° C
52° F
94% 30.19" Hg
1022.6 hPa
LIFR
Sep-19
01:00 UTC
070°
9 KTS
3 miles Overcast
400' AGL
12° C
54° F
11° C
52° F
94% 30.19" Hg
1022.5 hPa
LIFR
Sep-19
00:37 UTC
080°
10 KTS
Gust 15 KTS
3 miles Overcast
400' AGL
12° C
54° F
11° C
52° F
94% 30.19" Hg
1022.6 hPa
LIFR
Sep-19
00:30 UTC
080°
10 KTS
3 miles Overcast
600' AGL
12° C
54° F
12° C
54° F
100% 30.19" Hg
1022.6 hPa
IFR